Wind_Speed
7 7 7 6 5 5 6 4 10 13 12 11 11 11 11 13 13 12 11 12 11 11 11 11 10 9 8 7 6 6 5 5 5 4 4 3 3 2 2 1 1 1 1 1 0 0 1 1 1
7 6 6 5 5 9 11 8 12 15 14 13 12 11 12 12 12 13 13 13 12 12 12 11 11 10 9 8 7 6 6 6 6 5 5 4 3 3 2 2 1 1 1 1 1 1 2 2 2
6 5 5 5 5 6 11 13 16 17 14 13 13 12 12 12 12 14 14 14 13 13 14 13 12 11 10 9 8 7 7 6 6 6 5 4 4 3 3 3 2 2 2 2 3 3 3 3 3
5 4 4 5 5 5 11 16 17 16 15 14 14 13 12 12 13 13 14 15 15 16 15 14 13 12 11 11 9 9 8 7 7 6 6 5 5 4 4 4 3 3 3 4 4 4 4 4 5
4 3 4 7 8 6 14 18 16 14 15 15 15 15 13 12 14 14 14 15 15 16 16 16 15 13 12 12 11 10 9 8 8 7 7 6 6 6 5 5 5 5 5 5 5 5 5 6 7
4 2 5 6 8 11 16 18 15 14 16 16 16 17 15 14 14 15 15 14 14 15 16 17 16 15 14 13 11 10 10 10 9 8 7 7 7 7 6 6 6 6 6 6 7 7 7 8 8
4 1 3 4 9 12 17 18 16 15 16 16 17 18 16 14 15 16 17 15 15 15 16 17 17 16 15 14 13 12 11 11 10 9 8 8 8 7 7 7 7 7 7 7 8 8 8 8 9
3 0 2 2 7 12 18 17 16 16 17 16 17 19 16 14 16 17 18 18 17 17 18 18 18 17 17 16 14 13 12 12 11 10 9 9 9 9 9 9 9 8 9 9 8 9 9 9 10
0 1 1 2 6 11 16 17 17 18 17 18 18 19 17 17 18 18 19 20 20 19 19 19 18 18 18 16 15 14 13 12 12 11 11 10 10 9 9 9 9 10 10 10 10 9 9 9 10
1 1 2 7 11 12 15 16 16 18 18 19 19 19 19 18 19 19 19 19 20 21 21 20 19 19 18 17 16 16 14 13 12 12 11 11 10 10 9 9 9 10 10 10 10 10 9 9 9
2 3 6 8 10 11 13 15 16 17 19 19 20 19 18 19 20 19 20 20 20 20 20 20 19 20 19 17 17 16 15 14 13 13 11 11 10 10 10 10 10 10 10 9 9 8 9 9 9
5 5 8 9 11 11 13 15 16 18 19 20 20 19 20 20 21 20 21 21 21 21 21 21 21 20 19 18 17 16 15 14 13 12 11 10 10 10 10 9 9 8 7 7 7 7 7 7 7
7 7 9 11 12 14 16 16 17 17 18 19 20 20 20 20 21 21 21 22 23 23 22 22 21 21 20 19 17 16 15 15 13 12 11 10 10 9 8 8 7 5 5 5 5 5 5 5 6
4 6 9 11 12 16 19 19 18 18 19 20 20 20 20 19 19 20 19 21 22 24 24 22 22 21 20 19 18 16 14 14 13 11 9 9 9 8 7 6 5 4 4 4 4 4 5 5 6
5 6 10 12 13 16 20 20 19 19 19 20 21 19 19 17 17 17 18 20 21 23 24 23 23 21 19 19 18 16 14 12 11 9 8 8 7 6 5 5 5 4 4 4 4 5 5 5 5
5 8 12 14 14 16 20 20 21 21 20 20 20 19 18 15 14 14 16 18 21 21 22 23 22 20 18 18 17 15 13 11 9 8 6 5 5 5 4 4 4 4 4 4 4 5 5 5 5
8 12 13 14 15 16 19 21 21 21 20 20 19 19 17 14 13 13 14 17 19 19 20 21 19 19 18 18 17 15 12 10 8 7 6 5 4 4 3 3 2 3 3 3 4 4 5 5 5
10 12 13 14 16 19 19 21 21 21 20 20 19 19 16 12 11 12 12 13 16 18 18 18 17 18 17 16 16 12 10 8 7 6 5 4 4 3 2 2 1 2 2 3 4 5 5 6 6
11 11 12 15 16 19 18 17 18 19 19 19 20 19 16 13 11 11 11 12 14 17 17 17 17 17 16 15 13 10 9 7 6 5 4 3 3 2 2 1 1 1 1 2 4 5 6 6 6
11 11 13 16 16 17 16 16 17 16 16 18 19 18 14 12 10 9 9 10 12 14 15 17 17 17 15 14 12 9 8 7 5 5 3 3 2 2 2 1 0 0 1 2 3 5 5 6 7
11 13 15 16 16 15 16 16 18 15 14 17 17 16 14 11 8 7 7 8 9 11 12 14 14 14 14 13 11 9 8 7 6 5 4 3 3 2 2 1 1 1 1 2 3 4 5 6 7
14 14 16 15 13 16 15 18 18 16 15 16 17 15 12 9 6 5 4 4 7 8 10 11 12 12 12 11 10 9 8 7 6 5 5 4 4 3 2 2 1 1 1 2 3 4 5 6 7
15 15 14 14 14 15 13 14 15 17 17 17 18 16 12 7 5 3 1 3 5 7 9 9 10 11 11 10 9 9 8 8 7 6 6 5 5 4 3 2 2 1 0 1 2 3 5 6 7
15 14 13 15 16 18 12 10 12 14 17 17 17 16 11 7 5 3 1 1 3 6 8 10 10 10 9 9 10 9 9 8 7 7 7 6 6 5 4 4 3 2 1 2 3 4 5 7 8
15 16 16 17 19 17 10 8 10 13 15 15 16 14 10 7 5 3 2 2 3 5 8 9 9 9 9 9 9 9 9 8 8 8 8 7 7 7 6 5 5 4 4 4 5 6 7 8 9
16 16 17 19 18 18 12 9 11 10 13 14 14 12 9 6 4 3 2 3 4 5 6 8 8 8 9 9 10 10 10 9 9 9 9 9 9 8 8 7 7 7 7 7 8 8 9 10 11
17 17 17 20 17 16 15 11 12 9 9 12 13 12 9 7 5 3 3 3 4 6 7 8 9 8 8 9 10 10 10 10 11 11 10 10 10 10 10 10 10 10 10 10 11 12 13 13 14
18 17 18 19 17 16 18 19 14 10 8 10 12 12 10 8 6 5 4 4 5 6 7 8 9 9 8 9 10 11 11 11 12 12 12 12 12 12 12 12 12 13 14 14 15 16 16 16 18
20 20 19 19 18 18 19 21 17 9 7 9 12 12 10 8 7 6 6 5 6 7 7 8 9 9 9 10 11 11 12 12 13 13 13 13 13 13 14 14 15 16 17 17 18 19 20 20 21
22 21 20 20 18 18 17 20 19 15 10 8 11 12 10 9 9 7 6 7 7 7 7 8 9 10 10 11 12 13 13 14 14 15 15 15 16 16 16 17 18 19 20 21 21 22 23 24 25
Wind_Direction
343 343 347 355 11 1 348 342 303 299 299 297 293 286 277 271 266 263 256 250 239 240 241 237 234 229 225 226 231 230 228 229 227 220 217 212 205 200 185 165 175 176 166 151 139 277 304 317 336
341 341 344 354 359 354 331 319 299 299 300 298 294 286 276 273 266 260 257 251 240 239 240 236 234 229 228 230 234 235 236 238 236 231 229 229 227 224 221 218 237 240 246 239 247 264 264 265 267
340 339 352 3 16 344 313 304 300 303 302 299 295 289 282 278 274 268 262 254 242 238 238 236 236 232 230 234 235 239 242 243 240 238 239 240 242 246 249 244 251 259 266 265 262 262 259 261 262
332 340 5 22 357 314 293 292 296 300 304 301 296 287 280 279 275 271 265 255 245 236 235 234 234 232 232 235 238 241 245 246 244 246 250 251 253 254 256 258 258 263 270 271 267 261 256 260 260
326 337 28 18 329 304 290 291 297 302 300 297 293 288 284 284 278 271 266 256 244 236 235 232 230 231 231 234 240 243 247 246 248 253 255 257 261 261 260 262 265 264 266 268 266 263 258 260 259
312 331 43 2 317 296 290 294 300 298 296 297 293 290 286 280 276 270 266 256 243 235 233 231 228 228 231 234 240 244 246 248 251 256 257 259 263 265 268 269 268 267 268 268 266 263 264 263 259
310 334 63 319 297 292 287 296 302 298 296 295 291 285 284 277 276 272 265 259 245 236 234 230 226 226 229 235 239 243 247 251 256 257 259 262 264 267 271 271 272 272 269 270 269 268 267 263 260
328 103 139 273 293 287 287 300 305 304 300 295 289 285 285 275 277 272 264 256 248 239 233 226 225 224 228 233 237 242 247 253 256 259 261 265 267 268 270 270 271 273 273 273 274 271 270 266 262
337 128 80 305 278 282 289 299 302 305 301 295 290 289 286 281 278 273 264 256 247 235 232 227 225 224 226 230 235 241 248 253 257 260 263 266 269 271 271 270 271 272 274 273 273 274 275 272 264
212 210 271 266 263 275 290 300 304 307 301 294 291 294 289 284 279 272 261 249 240 232 230 228 225 227 227 229 234 241 247 251 256 261 264 266 267 270 271 273 275 274 274 272 271 269 272 271 268
260 259 270 275 290 295 302 307 307 303 302 298 296 295 286 280 278 269 258 252 240 232 225 224 223 225 227 230 234 239 245 249 256 260 264 269 269 271 273 274 278 275 273 271 271 271 271 272 271
305 303 294 299 309 319 320 318 315 307 304 299 299 298 289 281 277 267 254 245 238 234 228 222 224 228 228 231 236 242 246 250 256 263 269 272 274 274 275 274 279 280 272 271 275 278 274 273 273
304 314 310 308 317 327 329 322 318 312 310 310 309 303 292 283 274 266 253 245 236 229 228 224 226 228 230 234 239 244 249 252 256 264 272 274 275 277 280 281 280 280 279 282 286 286 285 279 275
313 300 294 304 313 325 330 325 317 317 317 317 314 308 300 287 274 265 255 245 234 229 228 225 226 230 233 236 241 245 249 250 255 262 268 272 276 278 282 288 288 287 287 291 296 298 300 296 288
344 319 305 306 317 321 327 326 321 321 321 321 318 312 307 295 280 265 254 242 234 230 229 225 227 230 235 238 242 245 248 252 254 260 269 274 277 283 288 295 297 299 304 306 309 310 311 313 311
343 325 316 319 325 320 323 323 324 324 324 324 322 319 314 302 287 275 254 241 232 227 226 224 225 230 235 239 244 247 247 248 249 258 270 272 275 281 290 298 303 309 313 314 320 321 319 320 325
332 319 319 319 316 313 315 319 322 325 323 325 324 323 319 305 292 279 257 240 229 223 224 224 227 230 235 240 245 247 243 239 243 255 266 265 267 271 279 293 311 318 328 332 337 338 337 336 340
308 314 313 310 310 311 312 316 320 327 327 327 327 324 319 308 292 278 261 235 226 225 225 226 229 232 237 239 240 236 233 233 240 252 260 259 261 266 271 290 309 324 342 352 358 356 355 353 352
289 295 295 295 296 304 310 313 315 321 327 330 332 329 318 311 296 280 264 241 232 230 228 228 229 231 233 235 230 228 225 230 234 242 252 250 249 255 261 279 303 339 355 6 9 8 9 6 2
284 287 288 291 298 307 311 310 314 317 330 334 333 335 324 308 303 285 263 238 229 228 227 229 228 228 230 227 226 224 222 230 232 234 237 238 240 236 224 217 179 38 14 12 21 22 24 19 15
280 285 287 294 301 307 312 310 313 328 335 341 338 337 333 319 311 297 257 229 225 226 222 221 224 224 225 220 222 223 225 228 225 223 220 222 214 197 183 175 151 109 62 49 34 25 23 19 16
277 284 289 294 298 298 304 304 312 327 335 345 341 338 338 335 323 294 254 217 216 215 212 213 218 218 215 215 218 221 222 219 221 217 215 212 208 200 197 196 170 119 85 55 32 21 14 12 10
269 278 286 288 288 283 288 295 312 328 339 342 341 340 337 340 343 323 249 221 210 210 212 210 213 210 207 213 217 218 216 217 220 216 218 216 213 208 211 210 210 205 138 25 8 2 359 359 0
272 280 286 291 294 291 294 303 309 324 332 334 337 342 340 343 348 346 284 226 224 218 214 213 212 212 213 216 218 218 216 217 218 219 219 220 215 214 217 222 230 232 255 302 327 332 336 339 342
269 280 288 292 301 310 312 308 300 319 326 329 331 338 340 339 347 337 285 253 235 222 215 209 219 221 220 219 220 220 216 216 222 224 225 222 221 223 225 233 241 251 264 279 298 311 318 322 325
262 274 284 290 299 311 307 291 294 308 318 326 330 332 333 331 334 329 291 261 238 226 219 214 221 218 219 221 223 221 221 224 228 227 226 225 226 230 236 243 251 258 267 276 286 296 303 307 312
255 262 274 283 293 300 298 286 276 286 312 324 329 328 327 323 323 314 288 257 242 230 227 227 223 219 223 227 227 226 227 229 231 231 229 231 234 239 245 251 257 263 269 276 283 290 295 299 303
255 261 265 268 280 284 289 289 278 287 313 322 320 322 321 319 314 313 298 274 247 236 233 232 230 231 231 233 232 232 234 235 235 235 236 238 242 246 252 257 262 266 271 277 283 288 292 296 300
251 256 260 261 265 273 283 294 297 298 303 312 312 312 310 307 302 300 296 287 258 243 242 240 235 235 240 242 238 238 239 241 240 240 242 245 249 254 259 264 267 271 275 278 283 287 290 293 296
249 251 257 262 265 269 277 287 293 291 291 289 299 302 298 298 293 286 280 278 269 253 243 240 241 242 245 245 241 243 244 246 246 246 248 252 256 260 264 267 270 273 277 280 283 286 289 291 293
Height
5898 5898 5897 5898 5898 5897 5893 5894 5895 5894 5893 5892 5891 5890 5889 5888 5888 5889 5885 5886 5889 5890 5892 5893 5894 5895 5896 5897 5898 5898 5899 5899 5899 5899 5899 5899 5899 5899 5899 5899 5899 5899 5899 5899 5898 5899 5898 5898 5898
5898 5898 5898 5898 5898 5896 5894 5893 5894 5893 5892 5891 5890 5889 5887 5885 5885 5885 5885 5885 5888 5889 5890 5892 5893 5894 5895 5896 5897 5898 5898 5899 5899 5899 5899 5899 5899 5899 5899 5899 5899 5899 5898 5898 5898 5898 5898 5898 5898
5897 5897 5897 5897 5896 5897 5897 5894 5893 5891 5891 5889 5888 5887 5886 5884 5884 5884 5884 5884 5886 5887 5889 5890 5892 5893 5894 5896 5897 5897 5898 5898 5898 5899 5899 5899 5899 5898 5898 5898 5898 5898 5898 5898 5898 5898 5898 5898 5897
5897 5897 5897 5897 5897 5897 5897 5895 5893 5891 5889 5887 5886 5884 5883 5883 5882 5882 5882 5882 5884 5885 5887 5888 5890 5892 5893 5895 5896 5896 5897 5898 5898 5898 5898 5898 5898 5898 5898 5898 5897 5897 5897 5897 5897 5897 5897 5897 5897
5895 5896 5896 5896 5896 5897 5896 5893 5891 5889 5887 5885 5883 5881 5880 5881 5881 5881 5880 5879 5881 5882 5884 5886 5888 5890 5892 5893 5894 5895 5896 5897 5897 5897 5897 5897 5897 5897 5897 5896 5896 5896 5896 5896 5896 5896 5896 5896 5896
5895 5895 5895 5897 5899 5898 5895 5891 5890 5888 5886 5884 5881 5879 5879 5878 5879 5878 5877 5876 5878 5880 5882 5884 5886 5888 5890 5892 5893 5894 5895 5896 5896 5896 5896 5896 5896 5896 5896 5895 5895 5895 5895 5895 5895 5895 5895 5895 5895
5894 5894 5894 5898 5899 5898 5893 5890 5888 5886 5883 5882 5879 5877 5876 5874 5875 5876 5875 5875 5876 5878 5880 5881 5884 5886 5888 5890 5891 5892 5894 5894 5894 5895 5895 5895 5895 5895 5895 5895 5894 5894 5894 5894 5894 5894 5894 5894 5894
5892 5893 5893 5896 5898 5896 5891 5888 5886 5883 5881 5879 5877 5874 5872 5871 5873 5873 5873 5873 5873 5876 5877 5877 5881 5883 5886 5888 5889 5891 5892 5893 5893 5893 5894 5894 5894 5894 5893 5893 5893 5893 5893 5893 5893 5892 5892 5892 5892
5891 5893 5893 5894 5896 5893 5889 5886 5883 5881 5878 5876 5874 5872 5870 5870 5870 5870 5870 5870 5870 5873 5874 5876 5878 5881 5883 5885 5887 5889 5890 5891 5892 5892 5892 5892 5892 5892 5892 5892 5891 5891 5891 5891 5891 5891 5890 5890 5890
5891 5891 5891 5892 5891 5889 5886 5884 5881 5878 5875 5872 5869 5868 5867 5867 5867 5867 5866 5866 5866 5869 5872 5874 5876 5878 5881 5883 5885 5887 5888 5889 5890 5890 5890 5890 5890 5890 5890 5890 5889 5889 5889 5889 5889 5889 5889 5888 5888
5889 5889 5889 5889 5888 5886 5884 5881 5879 5876 5872 5870 5867 5866 5865 5864 5863 5863 5862 5862 5862 5865 5867 5870 5873 5876 5878 5881 5882 5885 5886 5887 5888 5888 5888 5888 5888 5888 5888 5888 5887 5887 5887 5887 5887 5887 5886 5887 5886
5887 5887 5887 5886 5884 5883 5881 5879 5876 5873 5870 5867 5864 5862 5861 5860 5858 5858 5858 5859 5860 5862 5864 5867 5870 5873 5876 5878 5880 5882 5884 5885 5885 5886 5886 5886 5886 5886 5885 5886 5886 5885 5885 5885 5885 5885 5885 5885 5885
5886 5886 5885 5883 5882 5880 5879 5877 5873 5870 5867 5863 5860 5858 5857 5855 5853 5852 5853 5854 5856 5858 5861 5863 5868 5870 5874 5876 5878 5880 5882 5882 5883 5884 5884 5884 5884 5884 5884 5884 5884 5884 5884 5884 5884 5884 5884 5884 5884
5885 5884 5883 5882 5880 5878 5877 5874 5871 5867 5864 5861 5858 5855 5852 5849 5848 5847 5848 5850 5852 5855 5857 5861 5864 5867 5871 5873 5875 5877 5879 5880 5881 5882 5882 5882 5882 5882 5882 5882 5883 5882 5882 5883 5883 5882 5882 5883 5883
5882 5882 5880 5878 5877 5875 5875 5872 5868 5865 5861 5858 5855 5852 5848 5845 5843 5843 5844 5845 5848 5851 5854 5858 5862 5864 5867 5870 5873 5875 5876 5878 5879 5880 5881 5881 5881 5881 5881 5881 5882 5881 5881 5881 5881 5881 5881 5881 5881
5881 5880 5878 5876 5875 5874 5874 5870 5866 5862 5859 5856 5852 5849 5845 5842 5840 5840 5840 5840 5842 5846 5851 5855 5858 5862 5865 5868 5870 5873 5874 5875 5877 5878 5879 5879 5880 5880 5880 5880 5880 5881 5881 5880 5881 5880 5880 5880 5880
5879 5878 5877 5875 5874 5873 5871 5868 5864 5860 5856 5854 5850 5846 5843 5840 5838 5838 5837 5837 5840 5843 5847 5852 5856 5859 5862 5865 5868 5870 5872 5874 5875 5877 5877 5878 5879 5879 5879 5879 5879 5880 5880 5880 5880 5880 5880 5880 5879
5879 5879 5878 5876 5873 5872 5870 5867 5862 5858 5855 5852 5848 5844 5840 5838 5836 5836 5835 5836 5839 5843 5845 5849 5853 5856 5860 5863 5866 5868 5870 5872 5874 5875 5876 5877 5878 5878 5879 5879 5879 5879 5879 5880 5879 5879 5879 5879 5878
5877 5878 5877 5875 5873 5871 5868 5865 5861 5857 5853 5850 5846 5842 5838 5836 5835 5834 5834 5836 5838 5841 5844 5848 5851 5854 5858 5861 5864 5866 5869 5871 5872 5873 5875 5876 5877 5877 5878 5878 5878 5878 5879 5879 5879 5879 5878 5878 5878
5876 5875 5874 5872 5870 5868 5865 5861 5857 5854 5851 5849 5846 5841 5838 5835 5834 5833 5833 5834 5837 5840 5842 5846 5849 5852 5856 5860 5862 5865 5867 5869 5871 5872 5874 5875 5876 5877 5877 5878 5878 5878 5878 5879 5879 5879 5878 5878 5878
5874 5873 5871 5870 5868 5865 5862 5858 5854 5851 5850 5848 5845 5841 5837 5834 5833 5832 5831 5833 5836 5839 5842 5844 5848 5851 5855 5858 5860 5863 5866 5868 5870 5871 5873 5874 5876 5876 5877 5877 5878 5878 5878 5878 5879 5879 5879 5878 5878
5871 5870 5868 5867 5865 5863 5861 5856 5852 5849 5848 5846 5844 5841 5837 5835 5833 5833 5833 5834 5837 5839 5841 5844 5847 5850 5853 5856 5859 5862 5865 5867 5869 5870 5872 5874 5875 5875 5876 5877 5877 5878 5878 5878 5878 5879 5878 5878 5878
5867 5867 5866 5864 5861 5858 5856 5854 5851 5849 5847 5845 5844 5840 5837 5835 5834 5833 5834 5835 5837 5839 5841 5843 5846 5849 5852 5855 5858 5861 5863 5866 5868 5870 5871 5873 5874 5875 5876 5876 5877 5878 5878 5878 5878 5878 5878 5878 5877
5864 5864 5863 5860 5857 5854 5852 5852 5849 5849 5848 5846 5844 5841 5838 5836 5835 5835 5835 5836 5838 5839 5841 5844 5846 5849 5852 5855 5858 5860 5862 5864 5866 5868 5870 5871 5873 5874 5875 5876 5876 5877 5877 5878 5878 5878 5878 5877 5877
5862 5861 5860 5858 5854 5850 5848 5850 5849 5848 5848 5846 5843 5841 5839 5837 5836 5836 5836 5837 5838 5840 5841 5844 5846 5849 5852 5854 5857 5859 5861 5863 5865 5867 5868 5870 5871 5873 5874 5875 5875 5876 5876 5877 5877 5877 5876 5876 5876
5859 5858 5858 5855 5853 5850 5846 5848 5848 5847 5846 5845 5843 5841 5839 5838 5837 5837 5837 5837 5838 5840 5841 5843 5845 5848 5851 5853 5855 5857 5859 5862 5864 5865 5867 5868 5870 5871 5872 5873 5874 5874 5875 5875 5875 5875 5875 5874 5874
5855 5855 5855 5853 5851 5849 5846 5844 5844 5843 5843 5844 5842 5840 5839 5838 5837 5837 5837 5838 5839 5840 5841 5843 5845 5847 5849 5852 5854 5856 5858 5860 5862 5863 5865 5866 5868 5869 5870 5871 5871 5872 5872 5873 5873 5872 5872 5872 5871
5851 5852 5852 5850 5849 5848 5846 5841 5839 5839 5841 5841 5841 5840 5839 5837 5837 5837 5837 5838 5838 5839 5841 5842 5844 5846 5848 5850 5852 5854 5856 5858 5860 5861 5863 5864 5865 5866 5867 5868 5869 5869 5869 5870 5869 5869 5869 5869 5868
5846 5847 5847 5846 5846 5845 5843 5842 5836 5837 5837 5838 5839 5839 5839 5838 5837 5837 5837 5837 5837 5839 5840 5841 5843 5845 5846 5848 5850 5852 5854 5855 5857 5858 5860 5861 5862 5863 5864 5865 5865 5866 5866 5866 5866 5865 5865 5865 5864
5840 5841 5842 5841 5841 5842 5841 5841 5836 5836 5835 5836 5837 5838 5837 5837 5837 5836 5836 5837 5837 5837 5838 5840 5841 5843 5845 5846 5848 5849 5851 5852 5854 5855 5856 5857 5859 5859 5860 5861 5861 5861 5861 5861 5861 5861 5860 5859 5859